Regional Weather Roundup
Issued by NWS Charleston, SC

Current Version | Previous Version | Text Only | Print | Product List | Glossary Off
Versions: 1 2 3 4 5 6 7 8 9 10 11 12 13 14 15 16 17 18 19 20 21 22 23 24 25 26 27 28 29 30 31 32 33 34 35 36 37 38 39 40 41 42 43 44 45 46 47 48 49 50

000
ASUS42 KCHS 081227
RWRCHS

REGIONAL WEATHER ROUNDUP
NATIONAL WEATHER SERVICE CHARLESTON SC
700 AM EST THU DEC 08 2016

NOTE: "FAIR" INDICATES FEW OR NO CLOUDS BELOW 12,000 FEET WITH NO
SIGNIFICANT WEATHER AND/OR OBSTRUCTIONS TO VISIBILITY.

NOT ALL STATIONS ARE QUALITY CONTROLLED. USE DATA WITH CAUTION...
ESPECIALLY DEWPOINT OBSERVATIONS.

SCZ027-030-031-034>040-042>050-081300-
...SOUTHEAST SOUTH CAROLINA...

CITY           SKY/WX    TMP DP  RH WIND       PRES   REMARKS
N CHARLESTON   CLOUDY    54  51  90 W3        30.08R
6HR MIN TEMP:  53; 6HR MAX TEMP:  55;

WATERFRONT PRK   N/A     56  54  93 CALM      30.07R
MOUNT PLEASANT CLOUDY    52  52 100 CALM      30.08S FOG
JOHNS ISLAND   CLOUDY    55  54  94 CALM      30.09R FOG
PINOPOLIS        N/A     54  54 100 CALM      30.00R
MONCKS CORNER  PTSUNNY   50  50 100 CALM      30.07F FOG
SUMMERVILLE    CLOUDY   N/A N/A N/A CALM      30.09S
BEAUFORT MCAS  PTCLDY    53  49  86 W6        30.10R
6HR MIN TEMP:  53; 6HR MAX TEMP:  57;

BEAUFORT ARPT  FAIR      52  48  87 W9        30.09S
HILTON HEAD IS CLEAR     54  50  87 MISG      30.09S
WALTERBORO     CLOUDY    55 N/A N/A W6        30.10R
ALLENDALE      CLOUDY    52  50  93 CALM      30.09S

...SOUTHERN MIDLANDS AND PEE DEE...

CITY           SKY/WX    TMP DP  RH WIND       PRES   REMARKS
GEORGETOWN     CLOUDY    50  48  93 CALM      30.08S
KINGSTREE      CLOUDY    52  50  93 CALM      30.07S
ORANGEBURG     CLOUDY    53  51  93 W5        30.08R
6HR MIN TEMP:  52; 6HR MAX TEMP:  53; 6HR PCP: TRACE;

BARNWELL       NOT AVBL
AIKEN          FAIR      45  45 100 W7        30.13R
MANNING        CLOUDY    52  50  93 CALM      30.08R
COLUMBIA       CLOUDY    53  50  89 SW6       30.08R
6HR MIN TEMP:  50; 6HR MAX TEMP:  53;

SUMTER         CLOUDY    52  50  93 W5        30.06R
6HR MIN TEMP:  50; 6HR MAX TEMP:  53;

FLORENCE       CLOUDY    52  51  97 CALM      30.06R
6HR MIN TEMP:  51; 6HR MAX TEMP:  53;

MYRTLE BEACH   MOCLDY    50  46  87 W5        30.09R
N MYRTLE BEACH CLOUDY    50  50 100 W5        30.07R
6HR MIN TEMP:  46; 6HR MAX TEMP:  51;


$$

GAZ063-065-086>088-099>101-113>116-118-119-134>141-150-081300-
...SOUTHEAST GEORGIA...

CITY           SKY/WX    TMP DP  RH WIND       PRES   REMARKS
SAVANNAH ARPT  PTCLDY    49  46  90 W8        30.12R
6HR MIN TEMP:  48; 6HR MAX TEMP:  57;

HUNTER AAF     CLEAR     47  47 100 W8        30.09R
6HR MIN TEMP:  47; 6HR MAX TEMP:  57;

FORT STEWART   CLEAR     50  47  89 CALM      30.10R
6HR MIN TEMP:  49; 6HR MAX TEMP:  55;

STATESBORO     CLEAR     48  46  93 W6        30.13R
SYLVANIA       SUNNY    N/A N/A N/A W5        30.13R
CLAXTON        FAIR      48  47  95 W7        30.14R

...CSRA...CENTRAL AND FAR SOUTHEAST GEORGIA...

CITY           SKY/WX    TMP DP  RH WIND       PRES   REMARKS
THOMSON        CLOUDY    46  46 100 W5        30.16R
AUGUSTA-BUSH   PTCLDY    47  43  86 W5        30.10R
6HR MIN TEMP:  47; 6HR MAX TEMP:  55;

AUGUSTA-DANIEL PTCLDY    47  42  83 VRB3      30.11R
SWAINSBORO     FAIR      45  43  93 W7        30.15R
VIDALIA        PTCLDY    48  46  93 NW8       30.15R
EASTMAN        CLOUDY    51  38  59 NW10G17   30.19R
HAZLEHURST     CLOUDY    53  49  86 N6        30.14R
ALMA           CLOUDY    52  48  86 NW8       30.14R
6HR MIN TEMP:  49; 6HR MAX TEMP:  54;

WAYCROSS       PTCLDY    49  49 100 W7        30.15R
JESUP          CLOUDY    46  46 100 CALM      30.15R
BAXLEY         CLOUDY    54  52  94 NW8       30.14R
BRUNSWICK      CLEAR     46  46 100 W3        30.14R
SAINT SIMONS   CLEAR     51  48  89 W3        30.12R
6HR MIN TEMP:  50; 6HR MAX TEMP:  56;


$$

SCZ027-028-034-036>038-045-046-048>050-GAZ119-141-081300-
...LAKE AND SUPPLEMENTAL COASTAL OBSERVATIONS...

STATION/POSITION TIME  TEMP    WIND        PRES    WAVE   SWELL
                       AIR SEA DIR/SP/G            HT/PER HT/PER/DIR
                 (UTC) (F)     (DEG/KT/KT) (MB)    (FT/S) (FT/S/D)
WINYAH BAY       1145   51     320/  2     1018.0S
LAKE MURRAY      1120   53     250/  6/  8 1017.6
ACE BASIN NERRS  1145   53     280/  1     1018.0S
FORT PULASKI     1200   53 62  270/  7/ 11 1019.8
SAPELO ISLAND    1200   52     290/  6     1020.0

$$

ANZ835-935-AMZ111-154-330-350-352-354-370-450-454-472-081300-
...C-MAN AND BUOY OBSERVATIONS...

STATION/POSITION TIME  TEMP    WIND        PRES    WAVE   SWELL
                       AIR SEA DIR/SP/G            HT/PER HT/PER/DIR
                 (UTC) (F)     (DEG/KT/KT) (MB)    (FT/S) (FT/S/D)
BUOY 41004       1150   64 74   CALM  /  2 1017.7R   2/ 6   2/150/ 6
BUOY 41008       1150   57 64  290/ 14/ 17 1019.3R   2/ 3   2/ 60/11
FOLLY BEACH CMAN 1200   56     290/  3/  4 1019.1R
CAPERS NEARSHORE 1208   57 60  320/  4/  6 1018.4R
FRIPP NEARSHORE  1208   57 61  300/ 14/ 16 1018.9R


STATION/POSITION TIME  TEMP    WIND        PRES    WAVE   SWELL
                       AIR SEA DIR/SP/G            HT/PER HT/PER/DIR
                 (UTC) (F)     (DEG/KT/KT) (MB)    (FT/S) (FT/S/D)
5E ST. MARYS GA  1200      65                N/A     2/12   2/100/12
FRYING PAN BUOY  1210   63 74  270/ 12/ 16 1018.0
BUOY 41025       1150   57 78  350/  6/  8 1017.7S   4/ 9   5/ 60/ 9
CAPE LOOKOUT NC  1200   57      80/  4/  4 1017.0S
BUOY 41002       1150   71 73  230/  4/  6 1017.7R   5/11   5/ 20/11
BUOY 41010       NOT AVBL
ST AUGUSTINE FL  1200   53 66  310/  7/  8 1021.2R


$$



USA.gov is the U.S. government's official web portal to all federal, state and local government web resources and services.